Weather History for Meriden, CT

Change the Weather History Date:

Tuesday, August 27, 2013

  Actual Average (KHVN) Record (KHVN)
Temperature  
Mean Temperature 78 °F -  
Max Temperature 86 °F 76 °F 94 °F (1980)
Min Temperature 69 °F 61 °F 53 °F (1969)
Cooling Degree Days 12    
Growing Degree Days 28 (Base 50)    
Moisture  
Dew Point 68 °F    
Average Humidity 82    
Maximum Humidity 97    
Minimum Humidity 53    
Precipitation  
Precipitation 0.01 in - - ()
Sea Level Pressure  
Sea Level Pressure 29.86 in    
Wind  
Wind Speed 3 mph (North)    
Max Wind Speed 14 mph    
Max Gust Speed 18 mph    
Visibility 8 miles    
Events Rain    
Averages and records for this station are not official NWS values.
T = Trace of Precipitation, MM = Missing Value Source: NWS Daily Summary

Daily Weather History Graph

Daily Weather History Graph

Search for Another Location

Airport:

Trip Planner

Search our weather history database for the weather conditions in past years. The results will help you decide how hot, cold, wet, or windy it might be!

Date:

Astronomy

Aug. 27, 2013 Rise Set
Actual Time 6:12 AM EDT 7:32 PM EDT
Civil Twilight 5:43 AM EDT 8:00 PM EDT
Nautical Twilight 5:09 AM EDT 8:35 PM EDT
Astronomical Twilight 4:32 AM EDT 9:11 PM EDT
Moon 11:17 PM EDT (8/27) 1:13 PM EDT (8/27)
Length of Visible Light 14h 17m
Length of Day
13h 19m
Waning Gibbous, 57% of the Moon is Illuminated
Aug 27
Waning Gibbous
Aug 28
Last Quarter
Sep 5
New
Sep 12
First Quarter
Sep 19
Full

Hourly Weather History & Observations

Time (EDT) Temp. Heat Index Dew Point Humidity Pressure Visibility Wind Dir Wind Speed Gust Speed Precip Events Conditions
12:08 AM 69.8 °F - 68.0 °F 94% 29.91 in 3.0 mi Calm Calm - 0.00 in   Overcast
12:20 AM 69.8 °F - 68.0 °F 94% 29.91 in 2.5 mi Calm Calm - 0.00 in   Overcast
12:48 AM 69.8 °F - 68.0 °F 94% 29.91 in 1.5 mi Calm Calm - 0.00 in Rain Light Rain
5:42 AM 69.8 °F - 68.0 °F 94% 29.82 in 4.0 mi Calm Calm - 0.01 in   Overcast
5:53 AM 69.1 °F - 68.0 °F 96% 29.82 in 5.0 mi North 4.6 mph - 0.01 in   Overcast
6:08 AM 69.8 °F - 66.2 °F 88% 29.83 in 9.0 mi North 5.8 mph - N/A   Overcast
6:30 AM 69.8 °F - 66.2 °F 88% 29.83 in 9.0 mi NNE 3.5 mph - N/A   Overcast
6:50 AM 69.8 °F - 66.2 °F 88% 29.83 in 9.0 mi North 5.8 mph - N/A   Overcast
6:53 AM 69.1 °F - 66.9 °F 93% 29.83 in 9.0 mi North 4.6 mph - N/A   Overcast
7:17 AM 69.8 °F - 66.2 °F 88% 29.83 in 7.0 mi North 6.9 mph - 0.00 in Rain Light Rain
7:53 AM 70.0 °F - 66.9 °F 90% 29.84 in 8.0 mi NNE 5.8 mph - 0.00 in   Overcast
8:53 AM 71.1 °F - 68.0 °F 90% 29.84 in 10.0 mi North 6.9 mph - N/A   Overcast
9:01 AM 71.6 °F - 68.0 °F 88% 29.85 in 10.0 mi North 8.1 mph - N/A   Mostly Cloudy
9:46 AM 73.4 °F - 69.8 °F 88% 29.86 in 10.0 mi North 5.8 mph - N/A   Overcast
9:53 AM 75.0 °F - 69.1 °F 82% 29.86 in 10.0 mi North 6.9 mph - N/A   Overcast
10:53 AM 75.0 °F - 68.0 °F 79% 29.87 in 10.0 mi North 6.9 mph - N/A   Overcast
11:53 AM 77.0 °F - 68.0 °F 74% 29.87 in 10.0 mi North 9.2 mph - N/A   Overcast
12:32 PM 80.6 °F 83.2 °F 68.0 °F 65% 29.87 in 10.0 mi North 12.7 mph 18.4 mph N/A   Mostly Cloudy
12:53 PM 81.0 °F 83.8 °F 68.0 °F 65% 29.86 in 10.0 mi NW 13.8 mph 17.3 mph N/A   Scattered Clouds
1:53 PM 82.9 °F 85.8 °F 68.0 °F 60% 29.86 in 10.0 mi Variable 6.9 mph - N/A   Scattered Clouds
2:53 PM 84.9 °F 88.8 °F 69.1 °F 59% 29.84 in 10.0 mi NNE 6.9 mph - N/A   Partly Cloudy
3:53 PM 86.0 °F 88.8 °F 66.9 °F 53% 29.83 in 10.0 mi North 6.9 mph - N/A   Partly Cloudy
4:53 PM 84.9 °F 87.1 °F 66.0 °F 53% 29.82 in 10.0 mi Variable 5.8 mph - N/A   Partly Cloudy
5:53 PM 84.9 °F 87.1 °F 66.0 °F 53% 29.83 in 10.0 mi NNW 4.6 mph - N/A   Clear
6:53 PM 77.0 °F - 71.1 °F 82% 29.85 in 10.0 mi Calm Calm - N/A   Clear
7:53 PM 73.9 °F - 70.0 °F 87% 29.86 in 8.0 mi Calm Calm - N/A   Partly Cloudy
8:53 PM 72.0 °F - 69.1 °F 91% 29.88 in 7.0 mi Calm Calm - N/A   Scattered Clouds
9:53 PM 70.0 °F - 69.1 °F 97% 29.88 in 5.0 mi Calm Calm - N/A   Clear
10:53 PM 70.0 °F - 68.0 °F 93% 29.90 in 6.0 mi Calm Calm - N/A   Clear
11:41 PM 69.8 °F - 66.2 °F 88% 29.91 in 2.5 mi Calm Calm - N/A   Clear
11:48 PM 69.8 °F - 66.2 °F 88% 29.91 in 5.0 mi Calm Calm - N/A   Clear
11:53 PM 69.1 °F - 66.9 °F 93% 29.90 in 5.0 mi Calm Calm - N/A   Clear